{"data":{"norad_id":66532,"epoch":"2026-09-20T16:27:10.148832Z","epoch_age_seconds":73113,"freshness":"FRESH","line1":"1 66532U 25265S   26263.68553413  .00016306  00000+0  60071-3 0  9998","line2":"2 66532  42.9994 256.8636 0001301 270.7416  89.3286 15.27583223 46935","mean_motion":15.27583223,"eccentricity":0.0001301,"inclination_deg":42.9994,"raan_deg":256.8636,"arg_perigee_deg":270.7416,"mean_anomaly_deg":89.3286,"bstar":0.00060071,"rev_number":4693,"period_min":94.266549823191,"perigee_km":482.14680617963,"apogee_km":483.93208429068,"semimajor_km":6861.1764452352,"source":"CELESTRAK","updated_at":"2026-09-21T09:00:35.966546Z"}}